CZ-3B DEB, 40848

Orbit data source: Space-Track

CZ-3B DEB, 40848 is space debris in HEO originally from a launch on Mon, 19 Dec 2011 UTC launched from the Xichang Space Center, China (XSC). Debris objects in space refer to the collection of defunct objects orbiting the Earth. Examples of debris include non-operational satellites, rocket bodies, and fragments generated from explosions, collisions, or faulty payload assembly.

Loading next visibility...
Identifier
40848, 2011-077AD
Orbit
HEO
Country
Flag of CNCN / PRC
Related business
Manufacturer
CALT
Mission
Spacecraft
Bus & Motor
Unknown
Mass
Unknown
Launch date (UTC)
2011-12-19 (14 years ago)
Launch vehicle
Unknown
Launch site
Xichang Space Center, China (XSC)
Object type
Payload
Rocket body
Debris
Shape & HBR
Unknown shape, 0.4 m
Radar Cross Section
Medium (>0.1 m² and <1 m²)

Expand to show TLE details & history
Last TLE update: 1 day ago

TLE from 1 day ago
0 CZ-3B DEB
1 40848U 11077AD  26126.07531477 -.00000787  00000-0 -26590-1 0  9998
2 40848  26.9436  13.4005 7389590 358.1284   0.3869  1.91037215 78281
Epoch: 2026-05-06T01:48Z
TLE epoch observation values (Epoch: 2026-05-06T01:48:27.196Z)
Latitude
-0.00041°
Longitude
122.34627°
Altitude
776.261 km
Speed
9.843 km/s
True Right ascension
00h 53m 36s
True Declination
0° 00' 01"
Sunlit
Object was in daylight at epoch
Visualization orbit readout
Latitude
Unknown
Longitude
Unknown
Altitude
Unknown
Speed
Unknown
Apparent Right ascension
Unknown
Apparent Declination
Unknown
Sunlit
N/A
Visualization observer readout
Local Sidereal Time
17:53:24
Azimuth
Unknown
Elevation
Unknown
Doppler factor
Unknown
Orbital elements
Apogee altitude
41,338.551 km
Perigee altitude
784.776 km
Semi-major axis
27,439.801 km
Eccentricity
0.73896
Inclination
26.9436°
RAAN
13.4005°
Arg. of periapsis
358.1284°
True anomaly
3.82302°
Mean anomaly
0.3869°
Eccentric anomaly
1.48168°
Mean motion
0.4775 °/min
Orbital period
753.93 mins
BSTAR
-0.02659
Loading maneuver chart data...
Computing Atmospheric mass density...
Loading historical data...
Loading historical data...
Loading historical data...
Loading historical data...
Loading historical data...
Loading historical data...
Loading historical data...

Documentation

Showing up to 5 results
|